Location: Remedello Sotto
(45.2500°N, 10.3667°E)
Time: 10:18:24
(UTC+00:00)

Cosmos 2263 Rocket - Pass Details

Date: 03 February 2023
Orbit: 825 x 847 km, 71.0° (Epoch: 20 March)

Event Time Altitude Azimuth Distance (km) Brightness Sun altitude
Rises 17:11:22 0° 328° (NNW) 3,372 5.6 -8.0°
Reaches altitude 10° 17:13:55 10° 322° (NW) 2,434 4.9 -8.4°
Maximum altitude 17:19:07 42° 253° (WSW) 1,163 3.6 -9.3°
Drops below altitude 10° 17:24:18 10° 184° (S) 2,420 4.8 -10.2°
Sets 17:26:50 0° 177° (S) 3,350 5.4 -10.6°
